Simultaneous Nadir Overpasses (SNOs) Predictions

Prediction of SNOs between GOES-15 and NOAA-20 Satellite Orbit:

Table of predicted SNOs for the next 14.0 days since TLE Epoch: 1/9/2021
Index Date Time (GOES-15) GOES-15 Lat,Lon NOAA-20 Lat,Lon Distance(km) Time Diff (sec)
1 01/09/2021 10:01:36 0.22,-128.14 0.36,-128.83 78.55 80
2 01/10/2021 09:40:12 0.20,-128.12 -0.66,-124.30 435.83 80
3 01/11/2021 22:04:48 -0.25,-128.14 -0.55,-129.60 165.19 80
4 01/12/2021 21:43:23 -0.22,-128.12 0.47,-125.07 348.79 80
5 01/14/2021 10:07:50 0.27,-128.05 0.79,-130.31 258.67 80
6 01/15/2021 09:46:26 0.25,-128.03 -0.28,-125.80 255.34 80
7 01/16/2021 22:11:02 -0.29,-128.05 -0.98,-131.08 345.82 80
8 01/17/2021 21:49:37 -0.26,-128.03 0.04,-126.55 168.08 80
9 01/19/2021 10:14:04 0.30,-127.95 1.16,-131.81 439.72 80
10 01/20/2021 09:52:40 0.28,-127.93 0.14,-127.28 74.06 80
11 01/22/2021 21:58:32 -0.31,-127.93 -0.32,-128.05 14.12 80
